sat.trackr.live / text

‹ back to catalog

STARLINK-5576

NORAD 55382 · 2023-013BD

PAYLOAD ACTIVE UNKNOWN

§ Identity

Operator
Country
US
Launch date
2023-01-26
Launch site
AFETR
Launch vehicle
Mass (kg)
RCS (m²)

Purposes: comms

External: N2YO · Heavens-Above · Gunter

§ Orbital elements

Epoch: 2026-09-20T13:26:30.121440Z

Period
94.27 min
Inclination
43.0052°
Eccentricity
0.0001796
Mean motion
15.27577590 rev/d
Perigee alt
481.8 km
Apogee alt
484.3 km
Semi-major
6,861.2 km
B*
1.0609e-5
RAAN
297.7987°
Arg perigee
276.3745°
Mean anomaly
83.6902°
Rev number
20,130

§ Raw data

STARLINK-55761 55382U 23013BD  26263.56007085  .00000030  00000+0  10609-4 0  99942 55382  43.0052 297.7987 0001796 276.3745  83.6902 15.27577590201307

JSON: /api/v1/satellites/55382 · /tle

For live sub-satellite position, see the globe view (requires WebGL).

§ Visibility from observer

Set your observer location to see the next 7 days of passes ≥ 10°. The values pass through the URL so the page stays shareable.

No JS? Fill the form by hand. The geolocation button needs JavaScript.